User: anonymous
Location: Bangkok
(13.7500°N, 100.5170°E)
Time: 17:21:39
(UTC+07:00)
Language:

Cosmos 1898 Rocket - Orbit

View from above orbital plane
View from above orbital plane
View from above satellite
View from above satellite

Ground track
Ground track

The orbit data is extracted from the following two-line orbital elements,

1 18586U 87098B   14272.09758388  .00000271  00000-0  10132-3 0  1389
2 18586 074.0076 321.8450 0022180 254.8861 129.5293 14.36462447404891
Epoch (UTC): 29 September 2014 02:20:31
Eccentricity: 0.0022180
inclination: 74.0076°
perigee height: 754 km
apogee height: 786 km
right ascension of ascending node: 321.8450°
argument of perigee: 254.8861°
revolutions per day: 14.36462447
mean anomaly at epoch: 129.5293°
orbit number at epoch: 40489

The dashed part of the orbit path shows where the satellite is in the earth's shadow,  

DLR